Location: Brachbach
(49.1847°N, 9.7240°E)
Time: 23:29:42
(UTC+00:00)

FENGYUN 3A - Pass Details

Date: 20 August 2024
Orbit: 822 x 834 km, 98.6° (Epoch: 07 September)

Event Time Altitude Azimuth Distance (km) Brightness Sun altitude
Rises 01:43:45 0° 15° (NNE) 3,393 8.0 -21.3°
Reaches altitude 10° 01:46:07 10° 17° (NNE) 2,453 7.1 -21.0°
Maximum altitude 01:51:35 80° 104° (ESE) 850 3.7 -20.5°
Enters shadow 01:54:00 34° 187° (S) 1,332 4.3 -20.2°
